When you browse on this site, cookies collect data to enhance your experience and personalize the content and advertising you see.
Visit our Privacy Policy to learn more. By continuing to use the site, you agree to this use of cookies and data.
  • En España
  • Lista de países
  • Para 7 días
  • Temperatura del agua
  • Mapa Satelital
  • El tiempo en el mapa
  • Informadores
  • user-avatar
    Iniciar sesión

    Tiempo cada hora Mahdia

    Hoy, 19 Diciembre, Miércoles

    Tiempo Temperatura Precipitaciones Viento Presión Humedad
    00:00 +14°C° 0 mm 2 mps 770 mmHg 55%
    01:00 +13°C° 0 mm 2 mps 770 mmHg 54%
    02:00 +12°C° 0 mm 3 mps 770 mmHg 52%
    03:00 +12°C° 0 mm 3 mps 769 mmHg 51%
    04:00 +12°C° 0 mm 4 mps 769 mmHg 49%
    05:00 +12°C° 0 mm 4 mps 769 mmHg 49%
    06:00 +10°C° 0 mm 5 mps 769 mmHg 50%
    07:00 +10°C° 0 mm 5 mps 769 mmHg 50%
    08:00 +12°C° 0 mm 5 mps 769 mmHg 47%
    09:00 +13°C° 0 mm 6 mps 769 mmHg 45%
    10:00 +14°C° 0 mm 6 mps 769 mmHg 42%
    11:00 +15°C° 0 mm 5 mps 769 mmHg 38%
    12:00 +16°C° 0 mm 5 mps 768 mmHg 34%
    13:00 +18°C° 0 mm 4 mps 768 mmHg 31%
    14:00 +18°C° 0 mm 4 mps 768 mmHg 30%
    15:00 +19°C° 0 mm 3 mps 768 mmHg 29%
    16:00 +19°C° 0 mm 2 mps 767 mmHg 28%
    17:00 +18°C° 0 mm 2 mps 767 mmHg 33%
    18:00 +16°C° 0 mm 2 mps 768 mmHg 37%
    19:00 +15°C° 0 mm 1 mps 768 mmHg 42%
    20:00 +14°C° 0 mm 1 mps 768 mmHg 43%
    21:00 +14°C° 0 mm 1 mps 768 mmHg 44%
    22:00 +14°C° 0 mm 1 mps 768 mmHg 46%
    23:00 +13°C° 0 mm 1 mps 768 mmHg 46%

    Mañana, 20 Diciembre, Jueves

    Tiempo Temperatura Precipitaciones Viento Presión Humedad
    00:00 +13°C° 0 mm 1 mps 768 mmHg 46%
    01:00 +13°C° 0 mm 1 mps 768 mmHg 46%
    02:00 +13°C° 0 mm 1 mps 768 mmHg 46%
    03:00 +13°C° 0 mm 1 mps 768 mmHg 45%
    04:00 +13°C° 0 mm 1 mps 768 mmHg 45%
    05:00 +13°C° 0 mm 1 mps 768 mmHg 45%
    06:00 +12°C° 0 mm 1 mps 768 mmHg 46%
    07:00 +11°C° 0 mm 0 mps 769 mmHg 46%
    08:00 +13°C° 0 mm 0 mps 769 mmHg 41%
    09:00 +15°C° 0 mm 0 mps 769 mmHg 37%
    10:00 +17°C° 0 mm 0 mps 770 mmHg 32%
    11:00 +20°C° 0 mm 1 mps 769 mmHg 31%
    12:00 +20°C° 0 mm 1 mps 769 mmHg 31%
    13:00 +21°C° 0 mm 1 mps 769 mmHg 31%
    14:00 +21°C° 0 mm 1 mps 769 mmHg 33%
    15:00 +21°C° 0 mm 1 mps 769 mmHg 35%
    16:00 +20°C° 0 mm 2 mps 768 mmHg 37%
    17:00 +19°C° 0 mm 2 mps 769 mmHg 43%
    18:00 +18°C° 0 mm 2 mps 769 mmHg 49%
    19:00 +17°C° 0 mm 2 mps 770 mmHg 55%
    20:00 +16°C° 0 mm 2 mps 770 mmHg 58%
    21:00 +16°C° 0 mm 2 mps 770 mmHg 62%
    22:00 +15°C° 0 mm 2 mps 771 mmHg 65%
    23:00 +15°C° 0 mm 2 mps 771 mmHg 67%

    Pasado mañana, 21 Diciembre, Viernes

    Tiempo Temperatura Precipitaciones Viento Presión Humedad
    00:00 +14°C° 0 mm 2 mps 771 mmHg 68%
    01:00 +14°C° 0 mm 2 mps 771 mmHg 70%
    02:00 +14°C° 0 mm 2 mps 771 mmHg 71%
    03:00 +13°C° 0 mm 3 mps 771 mmHg 71%
    04:00 +13°C° 0 mm 3 mps 771 mmHg 72%
    05:00 +13°C° 0 mm 3 mps 771 mmHg 74%
    06:00 +13°C° 0 mm 4 mps 772 mmHg 75%
    07:00 +13°C° 0 mm 4 mps 772 mmHg 77%
    08:00 +14°C° 0 mm 4 mps 773 mmHg 73%
    09:00 +15°C° 0 mm 4 mps 773 mmHg 68%
    10:00 +17°C° 0 mm 4 mps 773 mmHg 64%
    11:00 +16°C° 0 mm 5 mps 773 mmHg 60%
    12:00 +17°C° 0 mm 5 mps 773 mmHg 56%
    13:00 +17°C° 0 mm 6 mps 773 mmHg 52%
    14:00 +17°C° 0 mm 5 mps 773 mmHg 51%
    15:00 +17°C° 0 mm 5 mps 773 mmHg 51%
    16:00 +17°C° 0 mm 5 mps 773 mmHg 50%
    17:00 +17°C° 0 mm 5 mps 773 mmHg 54%
    18:00 +16°C° 0 mm 5 mps 773 mmHg 57%
    19:00 +15°C° 0 mm 5 mps 774 mmHg 61%
    20:00 +15°C° 0 mm 5 mps 774 mmHg 64%
    21:00 +14°C° 0 mm 4 mps 774 mmHg 67%
    22:00 +14°C° 0 mm 4 mps 774 mmHg 69%
    23:00 +14°C° 0 mm 4 mps 774 mmHg 71%

    22 Diciembre, Sábado

    Tiempo Temperatura Precipitaciones Viento Presión Humedad
    00:00 +13°C° 0 mm 4 mps 774 mmHg 73%
    01:00 +13°C° 0 mm 3 mps 774 mmHg 75%
    02:00 +13°C° 0 mm 3 mps 774 mmHg 76%
    03:00 +12°C° 0 mm 3 mps 773 mmHg 77%
    04:00 +12°C° 0 mm 3 mps 773 mmHg 78%
    05:00 +12°C° 0 mm 3 mps 773 mmHg 79%
    06:00 +12°C° 0 mm 3 mps 773 mmHg 80%
    07:00 +11°C° 0 mm 3 mps 773 mmHg 80%
    08:00 +13°C° 0 mm 3 mps 774 mmHg 74%
    09:00 +14°C° 0 mm 3 mps 774 mmHg 67%
    10:00 +16°C° 0 mm 3 mps 774 mmHg 61%
    11:00 +17°C° 0 mm 3 mps 773 mmHg 56%
    12:00 +18°C° 0 mm 3 mps 773 mmHg 52%
    13:00 +19°C° 0 mm 3 mps 772 mmHg 47%
    14:00 +19°C° 0 mm 3 mps 772 mmHg 46%
    15:00 +19°C° 0 mm 2 mps 772 mmHg 45%
    16:00 +20°C° 0 mm 2 mps 772 mmHg 44%
    17:00 +18°C° 0 mm 2 mps 772 mmHg 49%
    18:00 +17°C° 0 mm 2 mps 772 mmHg 53%
    19:00 +16°C° 0 mm 2 mps 772 mmHg 57%
    20:00 +16°C° 0 mm 1 mps 772 mmHg 59%
    21:00 +15°C° 0 mm 1 mps 772 mmHg 60%
    22:00 +15°C° 0 mm 1 mps 773 mmHg 61%
    23:00 +15°C° 0 mm 1 mps 772 mmHg 62%

    23 Diciembre, Domingo

    Tiempo Temperatura Precipitaciones Viento Presión Humedad
    00:00 +14°C° 0 mm 2 mps 772 mmHg 63%
    01:00 +14°C° 0 mm 2 mps 772 mmHg 63%
    02:00 +14°C° 0 mm 2 mps 772 mmHg 65%
    03:00 +13°C° 0 mm 2 mps 771 mmHg 66%
    04:00 +13°C° 0 mm 2 mps 771 mmHg 68%
    05:00 +13°C° 0 mm 2 mps 771 mmHg 69%
    06:00 +13°C° 0 mm 2 mps 771 mmHg 71%
    07:00 +13°C° 0 mm 2 mps 771 mmHg 72%
    08:00 +14°C° 0 mm 2 mps 772 mmHg 64%
    09:00 +16°C° 0 mm 2 mps 772 mmHg 56%
    10:00 +18°C° 0 mm 2 mps 772 mmHg 48%
    11:00 +19°C° 0 mm 2 mps 772 mmHg 43%
    12:00 +20°C° 0 mm 2 mps 771 mmHg 39%
    13:00 +20°C° 0 mm 2 mps 771 mmHg 34%
    14:00 +21°C° 0 mm 2 mps 770 mmHg 33%
    15:00 +21°C° 0 mm 2 mps 770 mmHg 33%
    16:00 +22°C° 0 mm 1 mps 770 mmHg 32%
    17:00 +20°C° 0 mm 1 mps 770 mmHg 35%
    18:00 +19°C° 0 mm 1 mps 770 mmHg 39%
    19:00 +18°C° 0 mm 1 mps 770 mmHg 43%
    20:00 +16°C° 0 mm 1 mps 770 mmHg 42%
    21:00 +16°C° 0 mm 1 mps 771 mmHg 42%
    22:00 +16°C° 0 mm 2 mps 771 mmHg 41%
    23:00 +16°C° 0 mm 2 mps 770 mmHg 41%

    24 Diciembre, Lunes

    Tiempo Temperatura Precipitaciones Viento Presión Humedad
    00:00 +15°C° 0 mm 2 mps 770 mmHg 41%
    01:00 +15°C° 0 mm 2 mps 770 mmHg 41%
    02:00 +14°C° 0 mm 3 mps 770 mmHg 43%
    03:00 +14°C° 0 mm 3 mps 769 mmHg 44%
    04:00 +13°C° 0 mm 3 mps 769 mmHg 46%
    05:00 +13°C° 0 mm 3 mps 769 mmHg 47%
    06:00 +13°C° 0 mm 3 mps 769 mmHg 49%
    07:00 +12°C° 0 mm 3 mps 769 mmHg 50%
    08:00 +14°C° 0 mm 3 mps 769 mmHg 45%
    09:00 +17°C° 0 mm 3 mps 770 mmHg 40%
    10:00 +19°C° 0 mm 3 mps 770 mmHg 36%
    11:00 +20°C° 0 mm 3 mps 769 mmHg 33%
    12:00 +21°C° 0 mm 3 mps 769 mmHg 30%
    13:00 +22°C° 0 mm 3 mps 768 mmHg 28%
    14:00 +22°C° 0 mm 3 mps 768 mmHg 28%
    15:00 +22°C° 0 mm 3 mps 768 mmHg 28%
    16:00 +23°C° 0 mm 2 mps 767 mmHg 29%
    17:00 +21°C° 0 mm 3 mps 767 mmHg 34%
    18:00 +19°C° 0 mm 3 mps 768 mmHg 38%
    19:00 +18°C° 0 mm 3 mps 768 mmHg 43%
    20:00 +18°C° 0 mm 3 mps 768 mmHg 46%
    21:00 +17°C° 0 mm 3 mps 768 mmHg 48%
    22:00 +17°C° 0 mm 3 mps 768 mmHg 51%
    23:00 +15°C° 0 mm 4 mps 768 mmHg 52%
    Mostrar más